Regional Weather Roundup
Issued by NWS Upton, NY

Current Version | Previous Version | Text Only | Print | Product List | Glossary Off
Versions: 1 2 3 4 5 6 7 8 9 10 11 12 13 14 15 16 17 18 19 20 21 22 23 24 25 26 27 28 29 30 31 32 33 34 35 36 37 38 39 40 41 42 43 44 45 46 47 48 49

000
ASUS41 KOKX 051608
RWROKX

REGIONAL WEATHER ROUNDUP
NATIONAL WEATHER SERVICE NEW YORK NY
1200 PM EDT TUE MAY 05 2015

NOTE: "FAIR" INDICATES FEW OR NO CLOUDS BELOW 12,000 FEET WITH NO
SIGNIFICANT WEATHER AND/OR OBSTRUCTIONS TO VISIBILITY.

NYZ071-072-176-178-NJZ106-104-051700-
NEW YORK CITY METRO AREA


CITY           SKY/WX    TMP DP  RH WIND       PRES   REMARKS
CENTRAL PARK   PTSUNNY   78  54  43 E5        30.24S
LAGUARDIA APRT PTSUNNY   75  53  46 NE5       30.22R
KENNEDY INTL   PTSUNNY   77  52  41 N8        30.23R
NEWARK/LIBERTY PTSUNNY   81  55  40 W5        30.21F
BRNX BOT. GARD   N/A     75  54  46 W8        30.22S
TETERBORO      PTSUNNY   79  56  45 N3        30.20F
$$

NYZ177-179-078>081-051700-
LONG ISLAND NEW YORK

CITY           SKY/WX    TMP DP  RH WIND       PRES   REMARKS
FARMINGDALE    PTSUNNY   76  52  43 N7        30.22R
ISLIP          CLOUDY    76  51  41 N9        30.20S
SHIRLEY        PTSUNNY   76  52  43 N5        30.22S
WESTHAMPTON    PTSUNNY   71  53  52 SE5       30.23S
MONTAUK POINT    N/A     61  50  67 SE5       30.23R
$$

NYZ052-065-067-051700-
HUDSON VALLEY

CITY           SKY/WX    TMP DP  RH WIND       PRES   REMARKS
WHITE PLAINS   PTSUNNY   75  53  46 W7        30.22S
NEWBURGH       PTSUNNY   75  59  57 VRB6      30.24R
MONTGOMERY     MOSUNNY   77  56  48 CALM      30.21F
POUGHKEEPSIE   MOSUNNY   77  50  38 N3        30.21S
ALBANY         PTSUNNY   74  50  42 VRB6      30.23F
$$

NJZ001-105-106-008-010-013-015-019>022-104-051700-
NEW JERSEY

CITY           SKY/WX    TMP DP  RH WIND       PRES   REMARKS
NEWARK/LIBERTY PTSUNNY   81  55  40 W5        30.21F
TETERBORO      PTSUNNY   79  56  45 N3        30.20F
CALDWELL       PTSUNNY   77  55  46 SW7       30.22F
MORRISTOWN     CLOUDY    77  55  47 E6        30.22F
SOMERVILLE     PTSUNNY   81  54  39 VRB7      30.20F
SUSSEX         MOSUNNY   76  53  44 CALM      30.24S
ANDOVER          N/A     74  55  51 VRB6      30.23F
TRENTON        PTSUNNY   77  53  43 VRB5      30.23S
MILLVILLE      SUNNY     82  56  40 VRB7      30.24S
ATLANTIC CITY  MOSUNNY   83  54  36 W5        30.22F
WRIGHTSTOWN    LGT RAIN  77  55  46 VRB1      30.21S
TOMS RIVER     CLOUDY    77  54  44 NW8       30.24R
BELMAR         PTSUNNY   75  54  46 NW3       30.24S
$$

PAZ047>061-062-071-051700-
EASTERN PENNSYLVANIA

CITY           SKY/WX    TMP DP  RH WIND       PRES   REMARKS
PHILADELPHIA   PTSUNNY   76  55  48 SW5       30.24F
ALLENTOWN      PTSUNNY   76  56  49 CALM      30.23F
SCRANTON       PTSUNNY   74  52  46 VRB7      30.26S
$$

CTZ002-004>006-009-010-012-RIZ004-006-007-MAZ004-011-015-051700-
SOUTHERN NEW ENGLAND
 IN CT

CITY           SKY/WX    TMP DP  RH WIND       PRES   REMARKS
BRADLEY INTL   PTSUNNY   76  49  38 NW8       30.20F
HARTFORD       MOSUNNY   75  53  46 VRB7      30.20F
DANBURY        MOSUNNY   76  52  43 NW6       30.23S
WTRBRY/OXFORD  PTSUNNY   72  54  53 NW7       30.23S
BRIDGEPORT     PTSUNNY   71  51  49 S9        30.21S
MERIDEN        MOSUNNY   79  52  38 N9        30.21S
NEW HAVEN      PTSUNNY   68  52  56 S7        30.20F
CHESTER        FAIR      75  52  43 N7        30.22S
GROTON         PTSUNNY   66  50  56 SW8       30.20S
WILLIMANTIC    MOSUNNY   75  51  43 NE8       30.21F

 IN RI

CITY           SKY/WX    TMP DP  RH WIND       PRES   REMARKS
PROVIDENCE     PTSUNNY   73  54  51 N10       30.21S
BLOCK ISLAND   PTSUNNY   59  46  63 SW8       30.22F
WESTERLY       PTSUNNY   65  49  56 S6        30.22R

 IN MA

CITY           SKY/WX    TMP DP  RH WIND       PRES   REMARKS
BOSTON         PTSUNNY   66  58  75 S5        30.21R
WORCESTER      PTSUNNY   68  55  63 VRB5      30.22F
WESTFIELD      MOSUNNY   75  52  44 VRB5      30.19F
PROVINCETOWN   CLOUDY    57  52  82 CALM      30.21S
NANTUCKET      PTSUNNY   60  49  66 SW13      30.21S
$$

ANZ330-335-338-340-345-350-353-355-051700-
COASTAL MARINE OBSERVATIONS


STATION/POSITION TIME  SKY/WX   TEMP    WIND        PRES    VSBY  WAVE
                                AIR SEA DIR/SP/G                  HT/PER
                 (UTC)          (F)     (DEG/KT/KT) (MB)    (MI)  (FT/S)
NY HARB ENTRANCE 1550            55 52  210/  6/  6 1023.2          3/ 5
4S FIRE IS       1503               49                N/A           3/ 6
20S FIRE ISLAND  1550            52 48  240/  8/ 10 1023.7          3/ 5
GREAT SOUTH BAY  1530            59 60  220/  6/  8   N/A
23SW MTP         1550            50 48  250/  8/ 10 1023.3          4/ 5
HUDSON CANYON    NOT AVBL
KINGS POINT      1500            68     350/  2/  3 1022.6
EASTERN LI SOUND 1500            52     230/  6/  6   N/A
ROBBINS REEF     1500            73     350/  3/  5 1022.2
$$


>>>>>>>>>>>>>>>>>>>>>>>>>>>> KEY <<<<<<<<<<<<<<<<<<<<<<<<<<<
>                                                          <
>     SKY/WX - SKY CONDITION/PRESENT WEATHER               <
>     TMP    - TEMPERATURE IN FAHRENHEIT                   <
>     DP     - DEWPOINT IN FAHRENHEIT                      <
>     RH     - RELATIVE HUMIDITY IN PERCENT                <
>     WIND   - DIRECTION AND SPEED IN MPH                  <
>     PRES   - MEAN SEA LEVEL PRESSURE IN INCHES OF HG     <
>     WCI    - WIND CHILL INDEX                            <
>     VSB    - VISIBILITY IN MILES                         <
>     HX     - HEAT INDEX                                  <
>     TC     - TEMPERATURE IN CELSIUS                      <
>     VRB    - VARIABLE WIND DIRECTION                     <
>                                                          <
>>>>>>>>>>>>>>>>>>>>>>>>>>>> KEY <<<<<<<<<<<<<<<<<<<<<<<<<<<





USA.gov is the U.S. government's official web portal to all federal, state and local government web resources and services.